HAWK-C (43799 NORAD) Tracking and Keplerian Element Data

This shows tracking and keplerian element data for the satellite.

Feedback or suggestion? Click here.




ElementValue
Catalog43799
NameHAWK-C
Epoch Orbit4351
Epoch Day258.89891114
Epoch Year2019
RAAN329.9583
Inclination97.7361
Eccentricity0.0016086
Argument of Perigee42.1844
Mean Anonmoly318.0611
Mean Motion14.96012119
Decay Rate1E-08
L11 43799U 18099AT 19258.89891114 .00000001 00000-0 52909-5 0 9996
L22 43799 97.7361 329.9583 0016086 42.1844 318.0611 14.96012119 43517

Live tracking and technical data element details for HAWK-C (NORAD 43799). HAWK-C can be tracked NOW for your location showing map with azimuth and elevation plus other details from your city location.

Track the satellite on the map from your city or location and see movement details for azimuth, elevation, latitude, longitude, range, height, and movement on the map or in text.







IsCatalogInMostPopularTable: catalog: 43799, numindb: 121
Update: records affected: 1



GetName: 43799 HAWK-C

Hit Count: updated at: Tue, 17 Sep 2019 22:00:37 GMT